Change the Weather History Date:

Friday, April 12, 2013

  Actual Average Record
Temperature  
Mean Temperature 61 °F -  
Max Temperature 74 °F 72 °F 84 °F (2002)
Min Temperature 48 °F 44 °F 33 °F (2001)
Degree Days  
Heating Degree Days 4    
Growing Degree Days 11 (Base 50)    
Moisture  
Dew Point 19 °F    
Average Humidity 20    
Maximum Humidity 33    
Minimum Humidity 12    
Precipitation  
Precipitation 0.00 in - - ()
Sea Level Pressure  
Sea Level Pressure 29.88 in    
Wind  
Wind Speed 5 mph (North)    
Max Wind Speed 9 mph    
Max Gust Speed -    
Visibility 10 miles    
Events      
Averages and records for this station are not official NWS values.
T = Trace of Precipitation, MM = Missing Value Source: NWS Daily Summary

Daily Weather History Graph

Daily Weather History Graph

Search for Another Location

Airport or City:

Trip Planner

Search our weather history database for the weather conditions in past years. The results will help you decide how hot, cold, wet, or windy it might be!

Date:

Astronomy

Apr. 12, 2013 Rise Set
Actual Time 6:41 AM MDT 7:35 PM MDT
Civil Twilight 6:16 AM MDT 8:00 PM MDT
Nautical Twilight 5:47 AM MDT 8:30 PM MDT
Astronomical Twilight 5:16 AM MDT 9:00 PM MDT
Moon 8:00 AM MDT (4/12) 10:00 PM MDT (4/12)
Length of Visible Light 13h 43m
Length of Day
12h 53m
Waxing Crescent, 5% of the Moon is Illuminated
Apr 12
Waxing Crescent
Apr 18
First Quarter
Apr 25
Full
May 2
Last Quarter
May 9
New

Hourly Weather History & Observations

Time (MDT) Temp. Dew Point Humidity Pressure Visibility Wind Dir Wind Speed Gust Speed Precip Events Conditions
12:15 AM 62.6 °F 13.1 °F 15% 29.87 in 10.0 mi NW 6.9 mph - N/A   Clear
12:35 AM 62.1 °F 12.9 °F 15% 29.86 in 10.0 mi NW 6.9 mph - N/A   Clear
12:55 AM 60.8 °F 13.5 °F 16% 29.86 in 10.0 mi NW 6.9 mph - N/A   Clear
1:15 AM 59.7 °F 14.4 °F 17% 29.86 in 10.0 mi West 6.9 mph - N/A   Clear
1:35 AM 59.0 °F 14.4 °F 17% 29.87 in 10.0 mi West 8.1 mph - N/A   Clear
1:55 AM 58.8 °F 16.7 °F 19% 29.87 in 10.0 mi WNW 5.8 mph - N/A   Clear
2:15 AM 57.2 °F 17.2 °F 21% 29.87 in 10.0 mi NW 8.1 mph - N/A   Clear
2:35 AM 58.1 °F 20.3 °F 23% 29.87 in 10.0 mi NNW 8.1 mph - N/A   Clear
2:55 AM 58.5 °F 21.9 °F 24% 29.86 in 10.0 mi North 8.1 mph - N/A   Clear
3:15 AM 59.2 °F 23.9 °F 26% 29.86 in 10.0 mi North 8.1 mph - N/A   Clear
3:35 AM 59.0 °F 24.8 °F 27% 29.86 in 10.0 mi North 8.1 mph - N/A   Clear
3:55 AM 59.0 °F 25.7 °F 28% 29.87 in 10.0 mi North 8.1 mph - N/A   Clear
4:15 AM 58.3 °F 24.3 °F 27% 29.87 in 10.0 mi Calm Calm - N/A   Clear
4:35 AM 56.8 °F 23.2 °F 27% 29.87 in 10.0 mi Calm Calm - N/A   Clear
4:55 AM 55.2 °F 23.0 °F 29% 29.88 in 10.0 mi East 3.5 mph - N/A   Clear
5:15 AM 52.7 °F 21.7 °F 30% 29.88 in 10.0 mi East 4.6 mph - N/A   Clear
5:35 AM 50.5 °F 19.4 °F 29% 29.88 in 10.0 mi East 5.8 mph - N/A   Clear
5:55 AM 49.5 °F 18.9 °F 30% 29.88 in 10.0 mi East 5.8 mph - N/A   Clear
6:15 AM 49.5 °F 19.9 °F 31% 29.89 in 10.0 mi ENE 6.9 mph - N/A   Clear
6:35 AM 48.2 °F 20.1 °F 33% 29.90 in 10.0 mi NE 3.5 mph - N/A   Clear
6:55 AM 48.4 °F 18.7 °F 31% 29.90 in 10.0 mi NE 6.9 mph - N/A   Clear
7:15 AM 50.7 °F 20.7 °F 31% 29.91 in 10.0 mi NE 8.1 mph - N/A   Clear
7:35 AM 53.2 °F 23.9 °F 32% 29.92 in 10.0 mi NE 5.8 mph - N/A   Clear
7:55 AM 52.9 °F 23.9 °F 32% 29.93 in 10.0 mi ENE 6.9 mph - N/A   Clear
8:15 AM 54.7 °F 25.7 °F 33% 29.93 in 10.0 mi NE 9.2 mph - N/A   Clear
8:55 AM 58.3 °F 26.4 °F 30% 29.94 in 10.0 mi NE 8.1 mph - N/A   Clear
9:15 AM 59.5 °F 24.3 °F 26% 29.94 in 10.0 mi ENE 3.5 mph - N/A   Clear
9:35 AM 61.2 °F 22.6 °F 23% 29.94 in 10.0 mi East 3.5 mph - N/A   Clear
9:55 AM 61.9 °F 21.4 °F 21% 29.94 in 10.0 mi Calm Calm - N/A   Clear
10:15 AM 61.7 °F 20.5 °F 20% 29.94 in 10.0 mi Calm Calm - N/A   Clear
10:35 AM 62.8 °F 20.1 °F 19% 29.94 in 10.0 mi South 4.6 mph - N/A   Clear
10:55 AM 62.8 °F 20.7 °F 20% 29.94 in 10.0 mi Calm Calm - N/A   Clear
11:15 AM 64.2 °F 21.9 °F 20% 29.94 in 10.0 mi Calm Calm - N/A   Scattered Clouds
11:35 AM 64.6 °F 23.0 °F 21% 29.94 in 10.0 mi Calm Calm - N/A   Clear
11:55 AM 66.4 °F 23.0 °F 19% 29.93 in 10.0 mi Calm Calm - N/A   Clear
12:15 PM 68.4 °F 22.8 °F 18% 29.92 in 10.0 mi SW 3.5 mph - N/A   Clear
12:35 PM 69.4 °F 21.9 °F 17% 29.92 in 10.0 mi SE 9.2 mph - N/A   Clear
12:55 PM 70.0 °F 21.2 °F 16% 29.91 in 10.0 mi ESE 4.6 mph - N/A   Clear
1:15 PM 69.8 °F 20.8 °F 16% 29.91 in 10.0 mi South 5.8 mph - N/A   Clear
1:35 PM 68.9 °F 20.3 °F 16% 29.90 in 10.0 mi Calm Calm - N/A   Clear
1:55 PM 70.5 °F 21.4 °F 16% 29.90 in 10.0 mi SSW 4.6 mph - N/A   Clear
2:15 PM 70.9 °F 20.1 °F 15% 29.88 in 10.0 mi South 4.6 mph - N/A   Clear
2:35 PM 71.8 °F 20.3 °F 14% 29.88 in 10.0 mi ENE 3.5 mph - N/A   Clear
2:55 PM 72.3 °F 19.9 °F 14% 29.87 in 10.0 mi WSW 5.8 mph - N/A   Clear
3:15 PM 74.5 °F 20.5 °F 13% 29.86 in 10.0 mi South 8.1 mph - N/A   Clear
3:35 PM 73.6 °F 20.1 °F 13% 29.85 in 10.0 mi West 3.5 mph - N/A   Clear
3:55 PM 73.4 °F 19.4 °F 13% 29.84 in 10.0 mi NW 3.5 mph - N/A   Scattered Clouds
4:15 PM 73.2 °F 19.6 °F 13% 29.84 in 10.0 mi Calm Calm - N/A   Scattered Clouds
4:35 PM 72.7 °F 16.9 °F 12% 29.84 in 10.0 mi Calm Calm - N/A   Clear
4:55 PM 74.5 °F 18.0 °F 12% 29.83 in 10.0 mi WNW 4.6 mph - N/A   Clear
5:15 PM 74.1 °F 18.3 °F 12% 29.83 in 10.0 mi NW 6.9 mph - N/A   Clear
5:35 PM 73.4 °F 18.3 °F 12% 29.83 in 10.0 mi North 3.5 mph - N/A   Clear
5:55 PM 72.7 °F 17.6 °F 12% 29.83 in 10.0 mi WSW 6.9 mph - N/A   Clear
6:15 PM 72.0 °F 18.1 °F 13% 29.84 in 10.0 mi North 3.5 mph - N/A   Clear
6:35 PM 71.8 °F 19.2 °F 14% 29.84 in 10.0 mi Calm Calm - N/A   Clear
6:55 PM 72.5 °F 19.4 °F 13% 29.84 in 10.0 mi NE 4.6 mph - N/A   Clear
7:15 PM 70.7 °F 18.9 °F 14% 29.84 in 10.0 mi NE 3.5 mph - N/A   Clear
7:35 PM 70.3 °F 19.2 °F 14% 29.84 in 10.0 mi Calm Calm - N/A   Clear
7:55 PM 66.2 °F 17.6 °F 15% 29.84 in 10.0 mi Calm Calm - N/A   Clear
8:15 PM 63.0 °F 16.0 °F 16% 29.85 in 10.0 mi NNW 5.8 mph - N/A   Clear
8:35 PM 61.5 °F 15.6 °F 17% 29.85 in 10.0 mi NNW 5.8 mph - N/A   Clear
8:55 PM 60.3 °F 15.4 °F 17% 29.85 in 10.0 mi NW 8.1 mph - N/A   Clear
9:15 PM 60.1 °F 14.2 °F 17% 29.86 in 10.0 mi NW 6.9 mph - N/A   Clear
9:35 PM 58.3 °F 12.6 °F 17% 29.86 in 10.0 mi NNW 5.8 mph - N/A   Clear
9:55 PM 60.3 °F 14.4 °F 17% 29.87 in 10.0 mi NNE 4.6 mph - N/A   Clear
10:15 PM 59.4 °F 14.5 °F 17% 29.87 in 10.0 mi North 4.6 mph - N/A   Clear
10:35 PM 57.2 °F 14.0 °F 18% 29.88 in 10.0 mi North 6.9 mph - N/A   Clear
10:55 PM 57.6 °F 14.9 °F 19% 29.88 in 10.0 mi NNW 6.9 mph - N/A   Clear
11:15 PM 58.1 °F 15.1 °F 19% 29.88 in 10.0 mi North 8.1 mph - N/A   Clear
11:35 PM 58.3 °F 16.5 °F 20% 29.88 in 10.0 mi North 5.8 mph - N/A   Clear
11:55 PM 58.5 °F 17.4 °F 20% 29.89 in 10.0 mi North 4.6 mph - N/A   Clear